sat.trackr.live / text

‹ back to catalog

ONEWEB-0320

NORAD 49190 · 2021-083E

PAYLOAD ACTIVE UNKNOWN

§ Identity

Operator
Country
UK
Launch date
2021-09-14
Launch site
TYMSC
Launch vehicle
Mass (kg)
RCS (m²)

Purposes: comms

External: N2YO · Heavens-Above · Gunter

§ Orbital elements

Epoch: 2026-09-13T04:17:39.709248Z

Period
109.20 min
Inclination
87.9168°
Eccentricity
0.0001923
Mean motion
13.18687324 rev/d
Perigee alt
1,188.3 km
Apogee alt
1,191.2 km
Semi-major
7,567.9 km
B*
9.6679e-5
RAAN
317.9751°
Arg perigee
97.0596°
Mean anomaly
263.0755°
Rev number
24,157

§ Raw data

ONEWEB-03201 49190U 21083E   26256.17893182  .00000051  00000+0  96679-4 0  99932 49190  87.9168 317.9751 0001923  97.0596 263.0755 13.18687324241578

JSON: /api/v1/satellites/49190 · /tle

For live sub-satellite position, see the globe view (requires WebGL).

§ Visibility from observer

Set your observer location to see the next 7 days of passes ≥ 10°. The values pass through the URL so the page stays shareable.

No JS? Fill the form by hand. The geolocation button needs JavaScript.